Weather History for Canadian, TX

Change the Weather History Date:

Tuesday, February 19, 2013

  Actual Average (KPPA) Record (KPPA)
Temperature  
Mean Temperature 36 °F -  
Max Temperature 53 °F 54 °F 78 °F (2011)
Min Temperature 19 °F 26 °F 6 °F (1978)
Degree Days  
Heating Degree Days 29    
Moisture  
Dew Point 22 °F    
Average Humidity 60    
Maximum Humidity 93    
Minimum Humidity 28    
Precipitation  
Precipitation 0.00 in - - ()
Sea Level Pressure  
Sea Level Pressure 30.15 in    
Wind  
Wind Speed 5 mph (SSE)    
Max Wind Speed 20 mph    
Max Gust Speed 25 mph    
Visibility 10 miles    
Events      
Averages and records for this station are not official NWS values.
T = Trace of Precipitation, MM = Missing Value Source: NWS Daily Summary

Daily Weather History Graph

Daily Weather History Graph

Search for Another Location

Airport:

Trip Planner

Search our weather history database for the weather conditions in past years. The results will help you decide how hot, cold, wet, or windy it might be!

Date:

Astronomy

Feb. 19, 2013 Rise Set
Actual Time 7:23 AM CST 6:27 PM CST
Civil Twilight 6:57 AM CST 6:53 PM CST
Nautical Twilight 6:27 AM CST 7:23 PM CST
Astronomical Twilight 5:58 AM CST 7:53 PM CST
Moon 1:06 PM CST (2/19) 2:51 AM CST (2/19)
Length of Visible Light 11h 55m
Length of Day
11h 03m
Waxing Gibbous, 67% of the Moon is Illuminated
Feb 19
Waxing Gibbous
Feb 25
Full
Mar 4
Last Quarter
Mar 11
New
Mar 19
First Quarter

Hourly Weather History & Observations

Time (CST) Temp. Windchill Dew Point Humidity Pressure Visibility Wind Dir Wind Speed Gust Speed Precip Events Conditions
12:15 AM 28.4 °F - 21.2 °F 74% 30.14 in 10.0 mi Calm Calm - N/A   Clear
12:35 AM 24.8 °F 20.5 °F 19.4 °F 80% 30.14 in 10.0 mi SW 3.5 mph - N/A   Clear
12:55 AM 26.6 °F 22.6 °F 21.2 °F 80% 30.15 in 10.0 mi SW 3.5 mph - N/A   Clear
1:15 AM 26.6 °F 22.6 °F 21.2 °F 80% 30.15 in 10.0 mi SW 3.5 mph - N/A   Clear
1:35 AM 26.6 °F 22.6 °F 21.2 °F 80% 30.16 in 10.0 mi SW 3.5 mph - N/A   Clear
1:55 AM 26.6 °F 22.6 °F 21.2 °F 80% 30.16 in 10.0 mi SW 3.5 mph - N/A   Clear
2:15 AM 26.6 °F - 21.2 °F 80% 30.17 in 10.0 mi Calm Calm - N/A   Clear
2:35 AM 26.6 °F - 21.2 °F 80% 30.17 in 10.0 mi Calm Calm - N/A   Clear
2:55 AM 24.8 °F 20.5 °F 21.2 °F 86% 30.18 in 10.0 mi SW 3.5 mph - N/A   Clear
3:15 AM 23.0 °F - 19.4 °F 86% 30.17 in 10.0 mi Calm Calm - N/A   Clear
3:35 AM 21.2 °F - 19.4 °F 93% 30.17 in 10.0 mi Calm Calm - N/A   Clear
3:55 AM 21.2 °F - 17.6 °F 86% 30.17 in 10.0 mi Calm Calm - N/A   Clear
4:15 AM 21.2 °F - 19.4 °F 93% 30.17 in 10.0 mi Calm Calm - N/A   Clear
4:35 AM 23.0 °F - 19.4 °F 86% 30.17 in 10.0 mi Calm Calm - N/A   Clear
4:55 AM 23.0 °F 18.4 °F 19.4 °F 86% 30.18 in 10.0 mi SW 3.5 mph - N/A   Clear
5:15 AM 23.0 °F - 19.4 °F 86% 30.18 in 10.0 mi Calm Calm - N/A   Clear
5:35 AM 19.4 °F 14.3 °F 17.6 °F 93% 30.19 in 10.0 mi SW 3.5 mph - N/A   Clear
5:55 AM 21.2 °F 16.4 °F 19.4 °F 93% 30.20 in 10.0 mi SW 3.5 mph - N/A   Clear
6:15 AM 21.2 °F - 19.4 °F 93% 30.21 in 10.0 mi Calm Calm - N/A   Clear
6:35 AM 21.2 °F - 17.6 °F 86% 30.22 in 10.0 mi Calm Calm - N/A   Clear
6:55 AM 23.0 °F - 19.4 °F 86% 30.22 in 10.0 mi Calm Calm - N/A   Clear
7:15 AM 21.2 °F - 19.4 °F 93% 30.23 in 10.0 mi Calm Calm - N/A   Clear
7:35 AM 21.2 °F - 19.4 °F 93% 30.23 in 10.0 mi Calm Calm - N/A   Clear
7:55 AM 21.2 °F - 19.4 °F 93% 30.23 in 10.0 mi Calm Calm - N/A   Clear
8:15 AM 23.0 °F - 19.4 °F 86% 30.24 in 10.0 mi Calm Calm - N/A   Clear
8:35 AM 23.0 °F - 21.2 °F 93% 30.25 in 10.0 mi Calm Calm - N/A   Clear
8:55 AM 26.6 °F - 21.2 °F 80% 30.25 in 10.0 mi Calm Calm - N/A   Clear
9:15 AM 28.4 °F - 23.0 °F 80% 30.25 in 10.0 mi Calm Calm - N/A   Clear
9:35 AM 30.2 °F - 26.6 °F 86% 30.25 in 10.0 mi Calm Calm - N/A   Clear
9:55 AM 32.0 °F - 26.6 °F 80% 30.24 in 10.0 mi Calm Calm - N/A   Clear
10:15 AM 35.6 °F - 30.2 °F 81% 30.24 in 10.0 mi Calm Calm - N/A   Clear
10:35 AM 44.6 °F 40.2 °F 26.6 °F 49% 30.23 in 10.0 mi South 8.1 mph - N/A   Clear
10:55 AM 46.4 °F 40.7 °F 23.0 °F 40% 30.23 in 10.0 mi South 12.7 mph - N/A   Clear
11:15 AM 46.4 °F 40.4 °F 23.0 °F 40% 30.23 in 10.0 mi SSE 13.8 mph - N/A   Clear
11:35 AM 48.2 °F - 23.0 °F 37% 30.23 in 10.0 mi South 15.0 mph 19.6 mph N/A   Clear
11:55 AM 50.0 °F - 23.0 °F 35% 30.22 in 10.0 mi South 12.7 mph 19.6 mph N/A   Clear
12:15 PM 50.0 °F - 23.0 °F 35% 30.21 in 10.0 mi South 11.5 mph 17.3 mph N/A   Clear
12:35 PM 50.0 °F - 23.0 °F 35% 30.20 in 10.0 mi South 13.8 mph 19.6 mph N/A   Clear
12:55 PM 51.8 °F - 23.0 °F 33% 30.19 in 10.0 mi South 8.1 mph 18.4 mph N/A   Clear
1:15 PM 51.8 °F - 21.2 °F 30% 30.17 in 10.0 mi South 15.0 mph 20.7 mph N/A   Clear
1:35 PM 51.8 °F - 23.0 °F 33% 30.16 in 10.0 mi South 16.1 mph 21.9 mph N/A   Clear
1:55 PM 51.8 °F - 23.0 °F 33% 30.14 in 10.0 mi South 15.0 mph 24.2 mph N/A   Clear
2:15 PM 51.8 °F - 23.0 °F 33% 30.12 in 10.0 mi SSE 15.0 mph 18.4 mph N/A   Clear
2:35 PM 53.6 °F - 21.2 °F 28% 30.12 in 10.0 mi SSE 17.3 mph 24.2 mph N/A   Clear
2:55 PM 53.6 °F - 21.2 °F 28% 30.11 in 10.0 mi SSE 13.8 mph 21.9 mph N/A   Clear
3:15 PM 53.6 °F - 21.2 °F 28% 30.09 in 10.0 mi SSE 16.1 mph 23.0 mph N/A   Clear
3:35 PM 53.6 °F - 21.2 °F 28% 30.09 in 10.0 mi SE 16.1 mph 19.6 mph N/A   Clear
3:55 PM 53.6 °F - 21.2 °F 28% 30.08 in 10.0 mi SSE 19.6 mph 24.2 mph N/A   Clear
4:15 PM 53.6 °F - 21.2 °F 28% 30.07 in 10.0 mi SSE 19.6 mph 25.3 mph N/A   Clear
4:35 PM 51.8 °F - 21.2 °F 30% 30.06 in 10.0 mi SSE 16.1 mph 25.3 mph N/A   Clear
4:55 PM 51.8 °F - 21.2 °F 30% 30.06 in 10.0 mi SSE 17.3 mph 23.0 mph N/A   Clear
5:15 PM 50.0 °F - 21.2 °F 32% 30.05 in 10.0 mi SSE 17.3 mph 23.0 mph N/A   Clear
5:35 PM 50.0 °F - 21.2 °F 32% 30.06 in 10.0 mi SSE 19.6 mph 24.2 mph N/A   Clear
6:35 PM 46.4 °F 40.4 °F 21.2 °F 37% 30.07 in 10.0 mi SSE 13.8 mph - N/A   Clear
6:55 PM 46.4 °F 41.5 °F 21.2 °F 37% 30.08 in 10.0 mi SSE 10.4 mph - N/A   Clear
7:15 PM 46.4 °F 41.5 °F 21.2 °F 37% 30.08 in 10.0 mi SSE 10.4 mph - N/A   Clear
7:55 PM 44.6 °F 39.2 °F 21.2 °F 39% 30.09 in 10.0 mi SSE 10.4 mph - N/A   Clear
8:15 PM 44.6 °F 39.7 °F 21.2 °F 39% 30.09 in 10.0 mi SE 9.2 mph 17.3 mph N/A   Clear
8:35 PM 42.8 °F 37.5 °F 21.2 °F 42% 30.08 in 10.0 mi SE 9.2 mph - N/A   Clear
9:15 PM 42.8 °F 36.6 °F 23.0 °F 46% 30.09 in 10.0 mi SE 11.5 mph 16.1 mph N/A   Clear
9:35 PM 42.8 °F 36.2 °F 23.0 °F 46% 30.08 in 10.0 mi SE 12.7 mph - N/A   Clear
9:55 PM 42.8 °F 36.2 °F 23.0 °F 46% 30.07 in 10.0 mi SE 12.7 mph 17.3 mph N/A   Clear
10:15 PM 42.8 °F 37.0 °F 23.0 °F 46% 30.06 in 10.0 mi ESE 10.4 mph - N/A   Clear
10:35 PM 42.8 °F 37.0 °F 23.0 °F 46% 30.06 in 10.0 mi ESE 10.4 mph - N/A   Clear
10:55 PM 41.0 °F 34.7 °F 26.6 °F 57% 30.06 in 10.0 mi ESE 10.4 mph - N/A   Scattered Clouds
11:15 PM 41.0 °F 34.7 °F 26.6 °F 57% 30.05 in 10.0 mi ESE 10.4 mph - N/A   Overcast
11:35 PM 41.0 °F 34.7 °F 24.8 °F 53% 30.05 in 10.0 mi ESE 10.4 mph - N/A   Overcast
11:55 PM 42.8 °F 35.4 °F 23.0 °F 46% 30.04 in 10.0 mi SE 15.0 mph 20.7 mph N/A   Overcast